Chicago DuPage, IL

7:39 PM CDT on March 22, 2017 (GMT -0500)
Du Page

Weather History for KDPA - March, 2013

Change the Weather History Date:

Sunday, March 3, 2013

  Actual Average Record
Temperature  
Mean Temperature 20 °F 33 °F  
Max Temperature 31 °F 42 °F 51 °F (2008)
Min Temperature 8 °F 24 °F -7 °F (2014)
Degree Days  
Heating Degree Days 45 32  
Month to date heating degree days 128 97  
Since 1 July heating degree days 4856 4852  
Cooling Degree Days 0 0  
Month to date cooling degree days 0 0  
Year to date cooling degree days 0 0  
Moisture  
Dew Point 8 °F    
Average Humidity 65    
Maximum Humidity 84    
Minimum Humidity 40    
Precipitation  
Precipitation 0.00 in 0.08 in 0.30 in (2008)
Month to date precipitation T 0.23  
Year to date precipitation 4.47 2.96  
Sea Level Pressure  
Sea Level Pressure 30.14 in    
Wind  
Wind Speed 3 mph (NW)    
Max Wind Speed 12 mph    
Max Gust Speed 14 mph    
Visibility 10 miles    
Events      
T = Trace of Precipitation, MM = Missing Value Source: NWS Daily Summary

Daily Weather History Graph

Daily Weather History Graph

Search for Another Location

Airport or City:

Trip Planner

Search our weather history database for the weather conditions in past years. The results will help you decide how hot, cold, wet, or windy it might be!

Date:

Astronomy

Mar. 03, 2013 Rise Set
Actual Time 6:24 AM CST 5:45 PM CST
Civil Twilight 5:56 AM CST 6:13 PM CST
Nautical Twilight 5:24 AM CST 6:46 PM CST
Astronomical Twilight 4:51 AM CST 7:18 PM CST
Moon No Moon Rise 9:33 AM CST (3/3)
Length of Visible Light 12h 17m
Length of Day
11h 21m
Waning Gibbous, 63% of the Moon is Illuminated
Mar 3
Waning Gibbous
Mar 4
Last Quarter
Mar 11
New
Mar 19
First Quarter
Mar 27
Full

Hourly Weather History & Observations

Time (CST) Temp. Windchill Dew Point Humidity Pressure Visibility Wind Dir Wind Speed Gust Speed Precip Events Conditions
12:52 AM 10.9 °F - 5.0 °F 77% 30.18 in 10.0 mi Calm Calm - N/A   Clear
1:52 AM 10.9 °F - 6.1 °F 81% 30.17 in 10.0 mi Calm Calm - N/A   Clear
2:52 AM 10.9 °F - 6.1 °F 81% 30.15 in 10.0 mi Calm Calm - N/A   Clear
3:52 AM 10.0 °F - 6.1 °F 84% 30.14 in 10.0 mi Calm Calm - N/A   Clear
4:52 AM 9.0 °F 2.4 °F 3.9 °F 80% 30.15 in 10.0 mi NNW 3.5 mph - N/A   Clear
5:52 AM 10.9 °F 2.9 °F 7.0 °F 84% 30.17 in 10.0 mi NNW 4.6 mph - N/A   Clear
6:52 AM 10.0 °F - 6.1 °F 84% 30.18 in 10.0 mi Calm Calm - N/A   Clear
7:52 AM 14.0 °F - 9.0 °F 80% 30.17 in 10.0 mi Calm Calm - N/A   Clear
8:52 AM 19.9 °F 14.9 °F 10.9 °F 68% 30.17 in 10.0 mi NE 3.5 mph - N/A   Clear
9:52 AM 24.1 °F - 10.0 °F 55% 30.16 in 10.0 mi Calm Calm - N/A   Clear
10:52 AM 28.9 °F 23.9 °F 8.1 °F 41% 30.15 in 10.0 mi WNW 4.6 mph - 0.00 in   Clear
11:52 AM 30.0 °F 22.4 °F 8.1 °F 40% 30.14 in 10.0 mi WNW 8.1 mph - 0.00 in   Clear
12:52 PM 30.0 °F 22.4 °F 8.1 °F 40% 30.12 in 10.0 mi NW 8.1 mph - 0.00 in   Clear
1:52 PM 30.9 °F 24.3 °F 9.0 °F 40% 30.11 in 10.0 mi NW 6.9 mph - 0.00 in   Clear
2:52 PM 30.9 °F 22.8 °F 10.9 °F 43% 30.11 in 10.0 mi NW 9.2 mph - N/A   Clear
3:52 PM 30.0 °F 23.2 °F 10.9 °F 45% 30.11 in 10.0 mi West 6.9 mph - N/A   Clear
4:52 PM 30.0 °F 25.2 °F 10.9 °F 45% 30.10 in 10.0 mi NNW 4.6 mph - N/A   Clear
5:52 PM 25.0 °F 18.1 °F 12.0 °F 58% 30.12 in 10.0 mi NW 5.8 mph - N/A   Clear
6:52 PM 24.1 °F 19.7 °F 10.0 °F 55% 30.11 in 10.0 mi NW 3.5 mph - N/A   Clear
7:52 PM 19.0 °F - 10.0 °F 68% 30.12 in 10.0 mi Calm Calm - N/A   Clear
8:52 PM 18.0 °F - 9.0 °F 68% 30.13 in 10.0 mi Calm Calm - N/A   Clear
9:52 PM 15.1 °F - 8.1 °F 74% 30.13 in 10.0 mi Calm Calm - N/A   Clear
10:52 PM 15.1 °F - 10.0 °F 80% 30.13 in 10.0 mi Calm Calm - N/A   Clear
11:52 PM 12.9 °F - 8.1 °F 81% 30.12 in 10.0 mi Calm Calm - N/A   Clear